When you browse on this site, cookies collect data to enhance your experience and personalize the content and advertising you see.
Visit our Privacy Policy to learn more. By continuing to use the site, you agree to this use of cookies and data.
  • In Hungary
  • List of Countries
  • For 7 days
  • Water Temperature
  • Weather Map
  • News
  • Weather Widgets
  • user-avatar
    Login

    Hourly Weather Al-Budajji

    Today, 7 December, Saturday

    Time Temperature Precipitation Wind Pressure Humidity
    00:00 +26°C° 0 mm 2 mps 766 mmHg 52%
    01:00 +26°C° 0 mm 3 mps 766 mmHg 52%
    02:00 +26°C° 0 mm 3 mps 765 mmHg 54%
    03:00 +26°C° 0 mm 4 mps 765 mmHg 57%
    04:00 +26°C° 0 mm 4 mps 765 mmHg 61%
    05:00 +26°C° 0.2 mm 4 mps 765 mmHg 63%
    06:00 +27°C° 0.2 mm 4 mps 765 mmHg 65%
    07:00 +27°C° 0.2 mm 5 mps 765 mmHg 66%
    08:00 +27°C° 0.5 mm 5 mps 765 mmHg 67%
    09:00 +27°C° 0.5 mm 6 mps 765 mmHg 68%
    10:00 +27°C° 0 mm 5 mps 765 mmHg 67%
    11:00 +27°C° 0.2 mm 5 mps 765 mmHg 65%
    12:00 +27°C° 0.2 mm 5 mps 764 mmHg 64%
    13:00 +27°C° 0.2 mm 5 mps 764 mmHg 63%
    14:00 +27°C° 0 mm 5 mps 763 mmHg 64%
    15:00 +27°C° 0 mm 6 mps 763 mmHg 64%
    16:00 +27°C° 0 mm 6 mps 763 mmHg 64%
    17:00 +27°C° 0 mm 6 mps 763 mmHg 61%
    18:00 +27°C° 0 mm 6 mps 763 mmHg 57%
    19:00 +28°C° 0 mm 5 mps 764 mmHg 53%
    20:00 +28°C° 0 mm 6 mps 764 mmHg 55%
    21:00 +28°C° 0 mm 6 mps 764 mmHg 57%
    22:00 +28°C° 0 mm 6 mps 764 mmHg 59%
    23:00 +28°C° 0 mm 6 mps 764 mmHg 60%

    Tomorrow, 8 December, Sunday

    Time Temperature Precipitation Wind Pressure Humidity
    00:00 +27°C° 0 mm 6 mps 764 mmHg 61%
    01:00 +27°C° 0 mm 6 mps 764 mmHg 63%
    02:00 +27°C° 0 mm 5 mps 764 mmHg 61%
    03:00 +27°C° 0 mm 4 mps 764 mmHg 59%
    04:00 +28°C° 0 mm 4 mps 764 mmHg 58%
    05:00 +28°C° 0 mm 4 mps 764 mmHg 56%
    06:00 +28°C° 0 mm 3 mps 764 mmHg 54%
    07:00 +28°C° 0 mm 3 mps 765 mmHg 53%
    08:00 +28°C° 0 mm 3 mps 765 mmHg 52%
    09:00 +28°C° 0 mm 2 mps 765 mmHg 51%
    10:00 +28°C° 0 mm 2 mps 765 mmHg 51%
    11:00 +28°C° 0 mm 2 mps 765 mmHg 53%
    12:00 +28°C° 0 mm 2 mps 764 mmHg 54%
    13:00 +28°C° 0 mm 3 mps 764 mmHg 56%
    14:00 +28°C° 0 mm 3 mps 764 mmHg 57%
    15:00 +28°C° 0 mm 3 mps 763 mmHg 58%
    16:00 +28°C° 0 mm 3 mps 763 mmHg 58%
    17:00 +27°C° 0 mm 3 mps 763 mmHg 59%
    18:00 +27°C° 0 mm 3 mps 763 mmHg 60%
    19:00 +27°C° 0 mm 3 mps 764 mmHg 60%
    20:00 +27°C° 0 mm 3 mps 764 mmHg 60%
    21:00 +27°C° 0 mm 3 mps 764 mmHg 61%
    22:00 +27°C° 0 mm 3 mps 764 mmHg 61%
    23:00 +27°C° 0 mm 3 mps 764 mmHg 61%

    Day after tomorrow, 9 December, Monday

    Time Temperature Precipitation Wind Pressure Humidity
    00:00 +27°C° 0 mm 3 mps 764 mmHg 61%
    01:00 +28°C° 0 mm 4 mps 764 mmHg 60%
    02:00 +27°C° 0 mm 3 mps 764 mmHg 60%
    03:00 +27°C° 0 mm 3 mps 764 mmHg 60%
    04:00 +27°C° 0 mm 3 mps 763 mmHg 60%
    05:00 +27°C° 0 mm 3 mps 764 mmHg 61%
    06:00 +28°C° 0 mm 3 mps 764 mmHg 61%
    07:00 +28°C° 0 mm 3 mps 765 mmHg 62%
    08:00 +28°C° 0 mm 3 mps 765 mmHg 62%
    09:00 +28°C° 0 mm 3 mps 765 mmHg 62%
    10:00 +28°C° 0 mm 3 mps 765 mmHg 63%
    11:00 +28°C° 0 mm 3 mps 765 mmHg 62%
    12:00 +28°C° 0 mm 3 mps 764 mmHg 62%
    13:00 +28°C° 0 mm 3 mps 764 mmHg 61%
    14:00 +28°C° 0 mm 3 mps 764 mmHg 61%
    15:00 +28°C° 0 mm 3 mps 763 mmHg 62%
    16:00 +28°C° 0 mm 2 mps 763 mmHg 62%
    17:00 +28°C° 0.1 mm 2 mps 763 mmHg 62%
    18:00 +28°C° 0.1 mm 2 mps 763 mmHg 62%
    19:00 +28°C° 0.1 mm 2 mps 763 mmHg 61%
    20:00 +28°C° 0 mm 2 mps 764 mmHg 63%
    21:00 +28°C° 0 mm 3 mps 764 mmHg 64%
    22:00 +28°C° 0 mm 3 mps 764 mmHg 66%
    23:00 +28°C° 0.1 mm 3 mps 764 mmHg 66%

    10 December, Tuesday

    Time Temperature Precipitation Wind Pressure Humidity
    00:00 +28°C° 0.1 mm 3 mps 764 mmHg 67%
    01:00 +28°C° 0.1 mm 3 mps 764 mmHg 68%
    02:00 +27°C° 0.5 mm 4 mps 763 mmHg 70%
    03:00 +27°C° 0.5 mm 4 mps 763 mmHg 73%
    04:00 +27°C° 0.5 mm 5 mps 763 mmHg 75%
    05:00 +27°C° 0.4 mm 5 mps 763 mmHg 77%
    06:00 +27°C° 0.4 mm 6 mps 764 mmHg 78%
    07:00 +27°C° 0.4 mm 7 mps 764 mmHg 79%
    08:00 +27°C° 0.8 mm 7 mps 764 mmHg 79%
    09:00 +27°C° 0.8 mm 7 mps 764 mmHg 79%
    10:00 +27°C° 0.8 mm 7 mps 764 mmHg 79%
    11:00 +27°C° 2 mm 7 mps 764 mmHg 79%
    12:00 +27°C° 2 mm 7 mps 763 mmHg 79%
    13:00 +26°C° 2 mm 7 mps 763 mmHg 79%
    14:00 +27°C° 0.7 mm 6 mps 762 mmHg 78%
    15:00 +27°C° 0.7 mm 6 mps 762 mmHg 77%
    16:00 +27°C° 0.7 mm 6 mps 761 mmHg 76%
    17:00 +27°C° 0.4 mm 6 mps 761 mmHg 76%
    18:00 +27°C° 0.4 mm 6 mps 761 mmHg 76%
    19:00 +27°C° 0.4 mm 5 mps 762 mmHg 76%
    20:00 +27°C° 0.9 mm 6 mps 762 mmHg 77%
    21:00 +27°C° 0.9 mm 6 mps 762 mmHg 78%
    22:00 +27°C° 0.9 mm 6 mps 762 mmHg 79%
    23:00 +26°C° 0.7 mm 5 mps 762 mmHg 79%

    11 December, Wednesday

    Time Temperature Precipitation Wind Pressure Humidity
    00:00 +26°C° 0.7 mm 4 mps 762 mmHg 79%
    01:00 +26°C° 0.7 mm 3 mps 762 mmHg 79%
    02:00 +26°C° 0.3 mm 3 mps 762 mmHg 79%
    03:00 +26°C° 0.3 mm 3 mps 762 mmHg 78%
    04:00 +26°C° 0.3 mm 3 mps 762 mmHg 78%
    05:00 +26°C° 1.3 mm 2 mps 762 mmHg 77%
    06:00 +26°C° 1.3 mm 2 mps 762 mmHg 75%
    07:00 +26°C° 1.3 mm 1 mps 762 mmHg 74%
    08:00 +26°C° 1.1 mm 1 mps 762 mmHg 72%
    09:00 +27°C° 1.1 mm 2 mps 763 mmHg 69%
    10:00 +27°C° 1.1 mm 2 mps 763 mmHg 67%
    11:00 +27°C° 0.1 mm 3 mps 763 mmHg 69%
    12:00 +27°C° 0.1 mm 4 mps 762 mmHg 70%
    13:00 +27°C° 0.1 mm 5 mps 762 mmHg 72%
    14:00 +26°C° 0 mm 6 mps 762 mmHg 74%
    15:00 +26°C° 0 mm 7 mps 761 mmHg 75%
    16:00 +26°C° 0 mm 7 mps 761 mmHg 77%
    17:00 +26°C° 0 mm 7 mps 761 mmHg 76%
    18:00 +26°C° 0 mm 8 mps 762 mmHg 75%
    19:00 +26°C° 0 mm 8 mps 762 mmHg 74%
    20:00 +26°C° 0 mm 8 mps 762 mmHg 73%
    21:00 +24°C° 0 mm 8 mps 762 mmHg 72%
    22:00 +24°C° 0 mm 8 mps 763 mmHg 71%
    23:00 +24°C° 0 mm 8 mps 762 mmHg 70%

    12 December, Thursday

    Time Temperature Precipitation Wind Pressure Humidity
    00:00 +24°C° 0 mm 8 mps 762 mmHg 68%
    01:00 +24°C° 0 mm 8 mps 762 mmHg 66%
    02:00 +24°C° 0 mm 9 mps 762 mmHg 65%
    03:00 +24°C° 0 mm 9 mps 762 mmHg 64%
    04:00 +26°C° 0 mm 9 mps 762 mmHg 63%
    05:00 +24°C° 0 mm 9 mps 762 mmHg 63%
    06:00 +24°C° 0 mm 9 mps 762 mmHg 63%
    07:00 +24°C° 0 mm 9 mps 762 mmHg 63%
    08:00 +24°C° 0 mm 8 mps 762 mmHg 62%
    09:00 +24°C° 0 mm 8 mps 763 mmHg 61%
    10:00 +24°C° 0 mm 7 mps 763 mmHg 61%
    11:00 +24°C° 0 mm 7 mps 763 mmHg 60%
    12:00 +24°C° 0 mm 7 mps 762 mmHg 59%
    13:00 +26°C° 0 mm 7 mps 762 mmHg 58%
    14:00 +26°C° 0 mm 7 mps 762 mmHg 58%
    15:00 +26°C° 0 mm 7 mps 762 mmHg 58%
    16:00 +26°C° 0 mm 6 mps 761 mmHg 58%
    17:00 +26°C° 0 mm 6 mps 762 mmHg 57%
    18:00 +26°C° 0 mm 5 mps 762 mmHg 55%
    19:00 +26°C° 0 mm 5 mps 762 mmHg 53%
    20:00 +26°C° 0 mm 4 mps 762 mmHg 51%
    21:00 +26°C° 0 mm 2 mps 762 mmHg 48%
    22:00 +26°C° 0 mm 1 mps 762 mmHg 46%
    23:00 +26°C° 0 mm 1 mps 761 mmHg 46%
    Show more